Regional Weather Roundup
Issued by NWS Mt. Holly, NJ

Current Version | Previous Version | Text Only | Print | Product List | Glossary On
Versions: 1 2 3 4 5 6 7 8 9 10 11 12 13 14 15 16 17 18 19 20 21 22 23 24 25 26 27 28 29 30 31 32 33 34 35 36 37 38 39 40 41 42 43 44 45 46 47 48 49 50
254
ASUS41 KPHI 291511
RWRPHI

REGIONAL WEATHER ROUNDUP
NATIONAL WEATHER SERVICE MOUNT HOLLY NJ
1100 AM EDT SAT APR 29 2017

NOTE:  "FAIR" INDICATES FEW OR NO CLOUDS BELOW 12,000 FEET WITH NO
SIGNIFICANT WEATHER AND/OR OBSTRUCTIONS TO VISIBILITY.

 * = STATION DOES NOT REPORT PRECIPITATION (E.G. RAIN, SNOW, ETC.)
        OR FOG.

NJZ015>026-291600-
SOUTHERN NEW JERSEY

CITY           SKY/WX    TMP DP  RH WIND       PRES   REMARKS
POMONA         CLOUDY    81  64  56 W16G24    30.04F
WILDWOOD*      CLOUDY    77  70  79 W10       30.09
MILLVILLE      CLOUDY    79  68  69 W13G23    30.05F
WRIGHTSTOWN    PTSUNNY   76  66  71 W9        29.98F
MOUNT HOLLY    CLOUDY    76  65  68 SW6       30.02F
TRENTON        CLOUDY    74  67  78 SW6       30.02F

$$
NJZ001>014-291600-
NORTHERN NEW JERSEY

CITY           SKY/WX    TMP DP  RH WIND       PRES   REMARKS
SUSSEX         CLOUDY    72  64  76 SW9G16    30.02F
ANDOVER*         N/A     72  61  68 SW7       30.03F
MORRISTOWN     MOSUNNY   79  63  57 W16G24    30.01F
NEWARK         PTSUNNY   78  64  61 W20       29.98F
TETERBORO      CLOUDY    79  65  62 W10G22    29.98F
CALDWELL       CLOUDY    79  60  52 W14G25    30.00F
SOMERVILLE     CLOUDY    76  64  66 VRB3      29.98F
ALLAIRE*       CLOUDY    78  65  63 W14G22    30.03F
TOMS RIVER*    CLOUDY    81  65  58 W10       30.02F

$$
PAZ043-044-047-054-055-060>062-066>071-291600-
EASTERN PENNSYLVANIA

CITY           SKY/WX    TMP DP  RH WIND       PRES   REMARKS
PHILADELPHIA   PTSUNNY   77  65  66 SW12      30.03F
NORTH PHILA    PTSUNNY   79  66  64 W13       30.04F
BLUE BELL*     CLOUDY    73  66  78 W3        30.06R
DOYLESTOWN     CLOUDY    72  66  81 SW8       30.03F
QUAKERTOWN*    CLOUDY    73  64  73 NW6       30.04R
PERKASIE*      FAIR      73  66  78 SW6       30.05R
POTTSTOWN      CLOUDY    73  65  75 W6        30.06R
LANCASTER      CLOUDY    73  67  81 W13       30.05R
COATESVILLE    CLOUDY    77  64  65 W12G17    30.09R
READING        CLOUDY    73  65  75 W8        30.02R
ALLENTOWN      CLOUDY    74  63  68 NW10      30.02F
MOUNT POCONO   CLOUDY    64  59  83 W13G26    30.05F
HAZLETON       CLOUDY    63  61  94 NW8       30.08F
LEHIGHTON      FAIR      70  61  73 SW6       30.03F
WILKES BARRE   CLOUDY    65  59  81 SW13      30.04F

$$
DEZALL-MDZ008-012-015-019-020-291600-
DELAWARE AND EASTERN MARYLAND

CITY           SKY/WX    TMP DP  RH WIND       PRES   REMARKS
WILMINGTON     CLOUDY    76  65  68 SW17      30.06S
DOVER          CLOUDY    79  79 100 SW15      30.06F
GEORGETOWN     CLOUDY    82  70  66 W9        30.10F
EASTON           N/A     81  68  65 W12G17    30.15S
ABERDEEN       CLOUDY    75  66  72 SW16      30.08R
PATUXENT       CLOUDY    79  73  82 W16       30.12R
OCEAN CITY     CLOUDY    80  71  74 W18G25    30.12R
WALLOPS ISLAND CLOUDY    78  73  84 W16G26    30.14R
CAMBRIDGE      MOSUNNY   82  70  65 VRB7G15   30.12R
SALISBURY      CLOUDY    80  73  79 SW14G23   30.11F

$$
PAZ001-021-NYZ056-072-MDZ011-DCZ001-291600-
OTHER NEARBY LOCATIONS

CITY           SKY/WX    TMP DP  RH WIND       PRES   REMARKS
HARRISBURG     CLOUDY    71  65  81 SE6       30.01F
STATE COLLEGE  SUNNY     64  59  82 CALM      30.04F
WILLIAMSPORT   SUNNY    N/A N/A N/A CALM      30.04
BINGHAMTON     CLOUDY    63  49  60 VRB5      30.05S
NEW YORK CITY  MOSUNNY   77  65  66 VRB5      30.02F
BALTIMORE      CLOUDY    75  65  70 SW9       30.07F
WASHINGTON DC  CLOUDY    81  63  54 W9        30.10F

$$




USA.gov is the U.S. government's official web portal to all federal, state and local government web resources and services.